{"data":{"norad_id":58232,"epoch":"2026-05-25T05:21:54.732960Z","epoch_age_seconds":48881,"freshness":"FRESH","line1":"1 58232U 23171C   26145.22355015 -.00013211  00000+0 -47246-3 0  9990","line2":"2 58232  43.0026 212.6543 0001612 269.8377  90.2290 15.27507274141448","mean_motion":15.27507274,"eccentricity":0.0001612,"inclination_deg":43.0026,"raan_deg":212.6543,"arg_perigee_deg":269.8377,"mean_anomaly_deg":90.229,"bstar":-0.00047246,"rev_number":14144,"period_min":94.27123683864,"perigee_km":482.16081418251,"apogee_km":484.37293079099,"semimajor_km":6861.4038724867,"source":"CELESTRAK","updated_at":"2026-05-25T13:38:18.579529Z"}}